Regional Weather Roundup
Issued by NWS

Home | Current Version | Previous Version | Graphics & Text | Print | Product List | Glossary Off
Versions: 1 2 3 4 5 6 7 8 9 10 11 12 13 14 15 16 17 18 19 20 21 22 23 24 25 26 27 28 29 30 31 32 33 34 35 36 37 38 39 40 41 42 43 44 45 46 47 48 49 50

000
ASUS43 KDMX 241903
RWRIA

WEATHER ROUNDUP FOR IOWA
NATIONAL WEATHER SERVICE DES MOINES IA
200 PM CDT WED AUG 24 2016

NOTE: "FAIR" INDICATES FEW OR NO CLOUDS BELOW 12,000 FEET WITH NO
SIGNIFICANT WEATHER AND/OR OBSTRUCTIONS TO VISIBILITY.

* - THESE STATIONS ARE NOT NWS STATIONS...THUS NOT UNDER NWS
QUALITY CONTROL.  THEY ALSO DO NOT REPORT WEATHER SUCH
AS PRECIPITATION OR FOG.

IAZ001>003-012>014-020>022-031>034-043>046-242000-
   NORTHWEST IOWA

CITY           SKY/WX    TMP DP  RH WIND       PRES   REMARKS
CARROLL *      PTSUNNY   81  63  54 N14       29.98S HX  82
CHEROKEE *     PTSUNNY   77  60  56 NW8       30.01S
DENISON *      MOSUNNY   79  59  50 N12G17    29.98F HX  80
LE MARS *      CLOUDY    73  64  73 NW10      30.03F
ORANGE CITY *  CLOUDY    72  63  73 NW9       30.03F
SHELDON *      CLOUDY    73  63  68 NW9       30.02S
SIOUX CITY     CLOUDY    74  63  68 NW12      30.02S
SPENCER        CLOUDY    78  57  48 N12       30.01S
STORM LAKE *   CLOUDY    77  61  57 N9G16     30.01S
$$

IAZ055>058-069>071-079>083-090>094-242000-
   SOUTHWEST IOWA

CITY           SKY/WX    TMP DP  RH WIND       PRES   REMARKS
ATLANTIC *     CLOUDY    81  72  74 SW5       29.99S HX  84
AUDUBON *      MOSUNNY   82  70  65 NW6       30.00S HX  86
CLARINDA *       N/A     77  72  83 MISG      30.01F
COUNCIL BLFS * CLOUDY    81  68  65 N5        30.01R HX  83
CRESTON *      CLOUDY    81  70  69 W8        30.01S HX  84
HARLAN  *      MOSUNNY   79  63  57 N7        30.03R HX  80
LAMONI         CLOUDY    80  72  76 W10G18    30.01R HX  84
RED OAK *      CLOUDY    77  70  78 CALM      30.01R
SHENANDOAH *   PTSUNNY   77 -33   1 CALM      29.99F
$$

IAZ047>049-059>061-072>074-084-242000-
   CENTRAL IOWA

CITY           SKY/WX    TMP DP  RH WIND       PRES   REMARKS
AMES           CLOUDY    78  73  84 W6        29.98R HX  81
ANKENY *         N/A    N/A N/A N/A MISG        N/A
BOONE *        CLOUDY    77  72  83 CALM      29.98R
CHARITON *       N/A     81  72  74 MISG      29.99S HX  84
DES MOINES     PTSUNNY   83  72  69 W10       29.97R HX  88
GRINNELL*      PTSUNNY   80  70  70 SW10G17   29.98R HX  84
KNOXVILLE *    CLOUDY    82  70  65 W12G17    29.96F HX  86
MARSHALLTOWN   CLOUDY    76  72  87 W10       29.96R
NEWTON *       PTSUNNY   81  73  78 W14       29.97R HX  85
PERRY *        PTSUNNY   80  75  85 SW5       29.98S HX  84
$$

IAZ004>006-015-016-023>025-035-036-242000-
   NORTH CENTRAL IOWA

CITY           SKY/WX    TMP DP  RH WIND       PRES   REMARKS
ALGONA *       PTSUNNY   77  63  61 N9G16     29.99S
ESTHERVILLE    MOSUNNY   76  62  62 N8        30.00R
FORT DODGE *   PTSUNNY   79  70  73 N7        29.98R HX  81
MASON CITY     CLOUDY    77  70  79 NW12      29.97S
FOREST CITY *    N/A    N/A N/A N/A MISG        N/A
WEBSTER CITY * CLOUDY    79  72  78 NW7       29.96R HX  82
IOWA FALLS *   CLOUDY    75  71  86 NW8       29.98R
$$

IAZ007>011-017>019-026>030-037>042-050>054-066-242000-
   NORTHEAST IOWA

CITY           SKY/WX    TMP DP  RH WIND       PRES   REMARKS
CEDAR RAPIDS   SUNNY     84  73  69 SW13      29.94S HX  90
CHARLES CITY * CLOUDY    75  73  94 NW9       29.95S
CLINTON *      MOSUNNY   83  74  74 W9        29.95  HX  89
DECORAH *      CLOUDY    79  73  83 VRB5      29.92S HX  82
DUBUQUE        SUNNY     83  72  69 SW13      29.94S HX  88
MONTICELLO *   SUNNY     84  73  70 S9        29.92F HX  91
OELWEIN *      CLOUDY    79  72  78 W14       29.94S HX  82
WATERLOO       CLOUDY    78  69  73 W8        29.93R HX  80
$$

IAZ064-065-067-068-078-242000-
   EAST CENTRAL IOWA

CITY           SKY/WX    TMP DP  RH WIND       PRES   REMARKS
DAVENPORT      SUNNY     84  72  67 W7        29.95F HX  89
IOWA CITY      MOSUNNY   84  68  58 SW14G20   29.96S HX  87
MT. PLEASANT * SUNNY     87  71  57 SW10G17   29.98R HX  92
MUSCATINE *    SUNNY     86  66  51 W15       29.95F HX  88
QUAD CITIES    SUNNY     85  71  63 W9        29.95S HX  90
$$

IAZ062-063-075>077-085>089-095>099-242000-
   SOUTHEAST IOWA

CITY           SKY/WX    TMP DP  RH WIND       PRES   REMARKS
BURLINGTON     SUNNY     85  72  65 SW10G16   29.98S HX  91
FAIRFIELD *    MOSUNNY   84  68  58 W9        29.98S HX  87
FORT MADISON *   N/A     84  72  65 W5        29.99S HX  89
KEOKUK *       MOSUNNY   86  73  66 W9        29.97F HX  93
OSKALOOSA *      N/A     81  69  67 W10       29.99S HX  84
CENTERVILLE *    N/A     84  73  70 SW5       30.01S HX  91
OTTUMWA        MOSUNNY   83  67  58 W13       29.96S HX  85
WASHINGTON *   PTSUNNY   84  72  65 W8G15     29.98S HX  89
$$

ABBREVIATIONS USED IN REMARKS
   TC - TEMPERATURES IN CELSIUS
  WCI - WIND CHILL INDEX
   HX - HEAT INDEX
  VSB - VISIBILITY
$$





USA.gov is the U.S. government's official web portal to all federal, state and local government web resources and services.